[[{"header":{"parameterUnit":"m.s-1","parameterCategory":1,"la1":30.2991,"la2":30.254,"lo1":-89.0895,"lo2":-89.0444,"dy":0.0017,"dx":0.0017,"nx":28,"ny":28,"refTime":"2024-03-06T09:00:00:Z","depth":0,"parameterNumber":2,"parameterNumberName":"U-component_of_WINDS"},"data":[0,0,0,0,0,0,0,0,0,0,0,0,0,0,0,0,0,0,0,0,0,0,0,0,0,0,0,0,0,0,0,0,0,0,0,0,0,0,0,0,0,0,0,0,0,0,0,0,0,0,0,0,0,0,0,0,0,0,-3.7434,-3.7434,0,-3.7446,-3.7446,-3.7446,-3.7381,-3.7379,-3.7377,-3.7375,-3.7386,-3.7388,-3.739,0,0,0,0,0,0,0,0,0,0,0,0,0,-3.7356,-3.7358,-3.7434,-3.7434,-3.7435,-3.7446,-3.7446,-3.7446,-3.7381,-3.7379,-3.7377,-3.7375,-3.7385,-3.7387,-3.739,0,0,0,0,0,0,0,0,0,0,0,0,0,-3.7381,-3.7359,-3.7434,-3.7404,-3.7401,-3.7446,-3.7446,-3.7446,-3.7382,-3.7379,-3.7376,-3.7374,-3.7384,-3.7387,-3.739,-3.7464,0,0,-3.7399,-3.74,0,0,0,0,0,0,0,0,-3.738,-3.7384,-3.7408,-3.7406,-3.7403,-3.7409,-3.7422,-3.7452,-3.7382,-3.7389,-3.7375,-3.7372,-3.7396,-3.7397,-3.7406,-3.7464,-3.7465,-3.7399,-3.7401,-3.7403,-3.7403,0,0,0,0,0,0,0,-3.7378,-3.7383,-3.7439,-3.7408,-3.7405,-3.7389,-3.739,-3.7427,-3.7408,-3.7388,-3.7384,-3.7386,-3.7394,-3.7403,-3.7405,-3.7465,-3.7399,-3.7402,-3.7404,-3.7405,-3.7586,-3.7589,0,0,0,0,0,0,-3.7381,-3.7382,-3.7438,-3.7439,-3.7384,-3.7393,-3.7393,-3.741,-3.7407,-3.7404,-3.7388,-3.7383,-3.7399,-3.7402,-3.7405,-3.7492,-3.7403,-3.7405,-3.7407,-3.7583,-3.7586,-3.759,0,0,0,0,0,0,-3.7379,-3.7386,-3.7438,-3.7409,-3.7415,-3.7397,-3.7416,-3.7412,-3.7421,-3.7407,-3.7403,-3.7401,-3.7397,-3.7401,-3.745,-3.7491,-3.7407,-3.7409,-3.7579,-3.7584,-3.7588,-3.7665,0,0,0,0,0,0,-3.7377,-3.7386,-3.7414,-3.7411,-3.7417,-3.7483,-3.7419,-3.7414,-3.7426,-3.7419,-3.7418,-3.7415,-3.7395,-3.7446,-3.7453,-3.7494,-3.7412,-3.7575,-3.7581,-3.7587,-3.7658,-3.7671,-3.7682,0,0,0,0,0,-3.7375,-3.7435,-3.7416,-3.7423,-3.7451,-3.7485,-3.7488,-3.7464,-3.743,-3.7457,-3.7449,-3.7415,-3.7486,-3.7452,-3.7459,-3.7501,-3.7573,-3.758,-3.7586,-3.7653,-3.7669,-3.7682,0,0,0,0,0,0,-3.7442,-3.7434,-3.7412,-3.7473,-3.7481,-3.7474,-3.7508,-3.7482,-3.7498,-3.7491,-3.746,-3.7461,-3.7515,-3.7513,-3.7475,-3.7573,-3.7523,-3.7532,-3.7572,-3.7586,-3.7598,-3.7597,-3.7414,0,0,0,0,0,-3.7464,-3.7493,-3.7484,-3.7538,-3.7543,-3.7526,-3.7539,-3.752,-3.7526,-3.7529,-3.7524,-3.7531,-3.7555,-3.7571,-3.7592,-3.7659,-3.7657,-3.7692,-3.7704,-3.7713,-3.7721,-3.7756,-3.7771,-3.7612,-3.7612,-3.7612,0,0,-3.751,-3.7509,-3.7528,-3.7552,-3.7555,-3.7585,-3.7528,-3.7562,-3.7584,-3.7534,-3.758,-3.7577,-3.7583,-3.7641,-3.7666,-3.7641,-3.7765,-3.7722,-3.773,-3.7732,-3.7765,-3.778,-3.7793,-3.7617,-3.7616,-3.7615,0,0,-3.7608,-3.761,-3.7656,-3.7661,-3.7668,-3.7656,-3.7667,-3.7665,-3.7661,-3.7707,-3.767,-3.7696,-3.7738,-3.7744,-3.7752,-3.7855,-3.7825,-3.7863,-3.7925,-3.796,-3.7972,-3.7983,-3.8019,-3.8033,-3.7871,-3.7871,-3.7871,0,-3.7663,-3.7707,-3.7683,-3.772,-3.7731,-3.7689,-3.7734,-3.7741,-3.7754,-3.7762,-3.7734,-3.7786,-3.7787,-3.7846,-3.7872,-3.788,-3.7892,-3.7862,-3.7973,-3.7983,-3.7993,-3.8027,-3.8041,-3.7875,-3.7875,-3.7874,-3.7874,0,-3.7775,-3.7807,-3.7843,-3.7857,-3.7873,-3.7915,-3.7896,-3.7915,-3.7896,-3.7887,-3.7935,-3.7935,-3.7955,-3.7968,-3.7949,-3.8025,-3.801,-3.7978,-3.7927,-3.8013,-3.8045,-3.8058,-3.7882,-3.788,-3.7879,-3.7878,0,0,-3.7913,-3.7915,-3.7929,-3.7935,-3.794,-3.7964,-3.8004,-3.8025,-3.8042,-3.8053,-3.8086,-3.8123,-3.8094,-3.8104,-3.8085,-3.8116,-3.8198,-3.8081,-3.808,-3.8102,-3.8281,-3.8304,-3.8319,-3.8179,-3.8181,-3.8183,-3.828,0,-3.8008,-3.8077,-3.8057,-3.8125,-3.8154,-3.8115,-3.815,-3.8157,-3.8151,-3.8174,-3.8167,-3.8194,-3.8154,-3.816,-3.8189,-3.8182,-3.8233,-3.8175,-3.8208,-3.8209,-3.8206,-3.8336,-3.836,-3.8451,-3.8293,-3.8295,-3.8296,0,-3.8128,-3.8145,-3.8217,-3.8218,-3.8229,-3.8261,-3.8279,-3.8303,-3.831,-3.8303,-3.8316,-3.8291,-3.8331,-3.8282,-3.8336,-3.8296,-3.8309,-3.8308,-3.8311,-3.8311,-3.8257,-3.8339,-3.848,-3.8493,-3.8315,-3.8314,-3.8313,0,-3.822,-3.8261,-3.8309,-3.8316,-3.8319,-3.8343,-3.8345,-3.835,-3.8365,-3.8381,-3.839,-3.841,-3.8421,-3.8438,-3.842,-3.8386,-3.8476,-3.8426,-3.8471,-3.8472,-3.849,-3.8489,-3.8634,-3.8501,-3.8501,-3.8501,-3.85,0,-3.8328,-3.8373,-3.8351,-3.8381,-3.843,-3.8408,-3.8457,-3.8455,-3.8461,-3.8489,-3.8457,-3.8485,-3.846,-3.8485,-3.8472,-3.8518,-3.8524,-3.8519,-3.8515,-3.8521,-3.8521,-3.8527,-3.852,-3.8504,-3.8504,-3.8503,-3.8502,0,-3.8438,-3.8426,-3.8476,-3.8475,-3.8477,-3.8513,-3.8513,-3.854,-3.8533,-3.8569,-3.8576,-3.8564,-3.8592,-3.8577,-3.8606,-3.8597,-3.8657,-3.8644,-3.8654,-3.865,-3.8696,-3.8691,-3.8849,-3.8868,-3.8724,-3.8726,-3.8727,0,-3.8506,-3.8541,-3.8545,-3.8562,-3.8567,-3.8595,-3.861,-3.8589,-3.8606,-3.8618,-3.8644,-3.867,-3.8689,-3.8736,-3.873,-3.8752,-3.8739,-3.8793,-3.8742,-3.8748,-3.8738,-3.8736,-3.8739,-3.8802,-3.8804,-3.8805,-3.8806,0,-3.8629,-3.8622,-3.8645,-3.8666,-3.8685,-3.8701,-3.8714,-3.873,-3.871,-3.873,-3.8759,-3.8775,-3.8805,-3.8831,-3.885,-3.8852,-3.8826,-3.8823,-3.8834,-3.884,-3.8844,-3.8842,-3.868,-3.8819,-3.8818,-3.8817,-3.8816,-3.8815,-3.872,-3.8748,-3.8756,-3.8783,-3.8791,-3.8805,-3.883,-3.8827,-3.8851,-3.8874,-3.8861,-3.8895,-3.8903,-3.8926,-3.8932,-3.8959,-3.8937,-3.8954,-3.8958,-3.8962,-3.8967,-3.8842,-3.8962,-3.8962,-3.8961,-3.8961,-3.8961,0,-3.884,-3.8843,-3.8869,-3.8888,-3.891,-3.8885,-3.8899,-3.8918,-3.8949,-3.8959,-3.8979,-3.9013,-3.9038,-3.9035,-3.9058,-3.908,-3.9068,-3.9086,-3.9084,-3.9084,-3.8986,-3.8973,-3.9095,-3.9095,-3.9095,-3.9095,-3.9095,-3.9095,-3.8904,-3.8952,-3.8946,-3.8997,-3.9,-3.9034,-3.9044,-3.9056,-3.9064,-3.9103,-3.9124,-3.9123,-3.9127,-3.9151,-3.9173,-3.9172,-3.9181,-3.9203,-3.9197,-3.9105,-3.9091,-3.9079,-3.9066,-3.9206,-3.9206,-3.9293,-3.9294,-3.9295]},{"header":{"parameterUnit":"m.s-1","parameterCategory":1,"la1":30.2991,"la2":30.254,"lo1":-89.0895,"lo2":-89.0444,"dy":0.0017,"dx":0.0017,"nx":28,"ny":28,"refTime":"2024-03-06T09:00:00:Z","depth":0,"parameterNumber":3,"parameterNumberName":"V-component_of_WINDS"},"data":[0,0,0,0,0,0,0,0,0,0,0,0,0,0,0,0,0,0,0,0,0,0,0,0,0,0,0,0,0,0,0,0,0,0,0,0,0,0,0,0,0,0,0,0,0,0,0,0,0,0,0,0,0,0,0,0,0,0,2.3884,2.3885,0,2.3929,2.393,2.393,2.3939,2.3939,2.3938,2.3938,2.398,2.3981,2.3983,0,0,0,0,0,0,0,0,0,0,0,0,0,2.3805,2.3806,2.3884,2.3885,2.3885,2.3929,2.393,2.393,2.3939,2.3939,2.3938,2.3938,2.3979,2.3981,2.3983,0,0,0,0,0,0,0,0,0,0,0,0,0,2.3843,2.3807,2.3884,2.3895,2.3897,2.3929,2.393,2.393,2.3939,2.3939,2.3938,2.3938,2.3979,2.3981,2.3983,2.4006,0,0,2.399,2.3991,0,0,0,0,0,0,0,0,2.3841,2.3846,2.3893,2.3895,2.3896,2.3928,2.3917,2.3956,2.3939,2.3923,2.3938,2.3937,2.3963,2.3966,2.3976,2.4008,2.401,2.399,2.3991,2.3992,2.3993,0,0,0,0,0,0,0,2.3838,2.3844,2.3902,2.3894,2.3896,2.3897,2.3902,2.3924,2.3945,2.3924,2.3925,2.393,2.3964,2.3973,2.3977,2.4011,2.399,2.3992,2.3993,2.3994,2.4067,2.4068,0,0,0,0,0,0,2.3834,2.3842,2.39,2.3903,2.3867,2.3899,2.3905,2.3918,2.3945,2.3948,2.3931,2.3931,2.397,2.3974,2.3978,2.4008,2.3992,2.3994,2.3995,2.4066,2.4067,2.4068,0,0,0,0,0,0,2.3832,2.3839,2.3899,2.3873,2.3881,2.3901,2.3916,2.3919,2.3929,2.395,2.3953,2.3937,2.397,2.3975,2.4,2.401,2.3995,2.3997,2.4066,2.4067,2.4068,2.4068,0,0,0,0,0,0,2.383,2.3839,2.3848,2.3873,2.3882,2.392,2.3917,2.3921,2.3934,2.3934,2.3957,2.396,2.397,2.3997,2.4002,2.4013,2.3999,2.4065,2.4066,2.4067,2.4068,2.4069,2.4071,0,0,0,0,0,2.3827,2.3845,2.3848,2.3855,2.3894,2.3921,2.3926,2.3938,2.3934,2.3944,2.3957,2.3959,2.4008,2.3999,2.4005,2.4017,2.4064,2.4066,2.4067,2.4067,2.4069,2.4071,0,0,0,0,0,0,2.3818,2.3848,2.3852,2.3879,2.3898,2.3922,2.3934,2.3939,2.3958,2.3957,2.397,2.3976,2.4,2.4011,2.4,2.4042,2.4036,2.4039,2.4034,2.4036,2.4037,2.4034,2.4,0,0,0,0,0,2.382,2.384,2.3865,2.3886,2.3895,2.3913,2.3925,2.3933,2.3953,2.396,2.3975,2.3993,2.4012,2.4025,2.4044,2.407,2.4075,2.4081,2.4082,2.4083,2.4085,2.4101,2.4104,2.4073,2.4073,2.4073,0,0,2.3822,2.3841,2.3853,2.3885,2.39,2.392,2.392,2.394,2.3956,2.3963,2.3988,2.4,2.402,2.4047,2.4059,2.4056,2.4096,2.4085,2.4086,2.4087,2.4103,2.4106,2.4109,2.4074,2.4074,2.4073,0,0,2.3837,2.3854,2.3874,2.389,2.3914,2.3927,2.3932,2.3957,2.3965,2.3991,2.3998,2.4015,2.4048,2.4063,2.4075,2.41,2.4102,2.4105,2.4113,2.4129,2.4131,2.4133,2.4143,2.4146,2.4107,2.4107,2.4107,0,2.3837,2.3869,2.3883,2.3905,2.3919,2.3929,2.395,2.3964,2.3992,2.4002,2.3999,2.4043,2.4057,2.4088,2.4094,2.4103,2.4109,2.4102,2.413,2.4132,2.4135,2.4144,2.4147,2.4108,2.4108,2.4107,2.4107,0,2.3868,2.389,2.3903,2.3933,2.3948,2.3969,2.3987,2.4001,2.4009,2.4021,2.4048,2.4066,2.409,2.4098,2.4104,2.413,2.4128,2.4127,2.4122,2.4138,2.4146,2.415,2.4108,2.4108,2.4108,2.4108,0,0,2.3876,2.3916,2.3921,2.3935,2.3964,2.3981,2.4003,2.4028,2.404,2.406,2.4078,2.4108,2.4108,2.4122,2.413,2.4144,2.4163,2.4142,2.4143,2.4146,2.4194,2.4194,2.4198,2.4166,2.4167,2.4167,2.4192,0,2.3895,2.3936,2.3951,2.3984,2.4005,2.4016,2.4035,2.4055,2.4068,2.4087,2.4101,2.4122,2.4121,2.4129,2.4143,2.4158,2.4173,2.4156,2.4183,2.4184,2.4177,2.4202,2.4202,2.4224,2.4196,2.4196,2.4197,0,2.3922,2.3945,2.398,2.4009,2.4018,2.4035,2.4061,2.4079,2.4102,2.411,2.4127,2.4135,2.4159,2.4153,2.4185,2.4173,2.4185,2.4195,2.4196,2.4198,2.4191,2.4205,2.4232,2.4235,2.4202,2.4201,2.4201,0,2.3925,2.3965,2.3992,2.4004,2.4037,2.405,2.4064,2.4086,2.4101,2.4123,2.4133,2.4156,2.4169,2.4187,2.4202,2.4196,2.4233,2.4228,2.4241,2.424,2.4247,2.4247,2.4276,2.4255,2.4255,2.4255,2.4255,0,2.3945,2.3966,2.3995,2.4011,2.4036,2.4054,2.4077,2.4092,2.4113,2.4132,2.4142,2.416,2.4178,2.4199,2.421,2.4236,2.4241,2.4249,2.4251,2.4248,2.4247,2.4255,2.4254,2.4256,2.4256,2.4256,2.4255,0,2.3952,2.3972,2.4003,2.4033,2.4041,2.4058,2.4084,2.41,2.4115,2.414,2.4146,2.4169,2.4193,2.421,2.4241,2.4249,2.4277,2.4279,2.4269,2.4271,2.4283,2.4282,2.4319,2.4325,2.43,2.43,2.43,0,2.3963,2.3981,2.4014,2.4029,2.4044,2.4067,2.4083,2.4102,2.4118,2.4147,2.416,2.4185,2.4207,2.4246,2.4264,2.4288,2.4291,2.4303,2.4295,2.4291,2.4292,2.4291,2.4293,2.4303,2.4304,2.4304,2.4304,0,2.3981,2.3991,2.4014,2.4042,2.4061,2.4084,2.4106,2.4117,2.4139,2.4157,2.4183,2.42,2.4233,2.4259,2.4285,2.4299,2.4305,2.4307,2.4311,2.4307,2.4301,2.4305,2.4273,2.4305,2.4305,2.4305,2.4305,2.4305,2.3991,2.4008,2.4035,2.4061,2.408,2.4101,2.4119,2.4137,2.416,2.419,2.4199,2.4226,2.425,2.4287,2.4301,2.4323,2.4322,2.4328,2.4329,2.433,2.4331,2.4298,2.4328,2.4328,2.4328,2.4328,2.4328,0,2.4009,2.4028,2.4052,2.4085,2.4106,2.4112,2.4137,2.4154,2.4179,2.4202,2.4224,2.4255,2.428,2.4302,2.4328,2.4341,2.4345,2.4347,2.4346,2.435,2.433,2.4324,2.4344,2.4344,2.4344,2.4344,2.4344,2.4344,2.4022,2.4051,2.4064,2.4103,2.4122,2.415,2.4165,2.4184,2.4203,2.4238,2.426,2.4274,2.4297,2.4325,2.4349,2.4354,2.4364,2.4366,2.4372,2.4353,2.4351,2.4349,2.4343,2.4368,2.4368,2.439,2.439,2.439]}]]